Location: *
(43.3760°S, 179.0457°W)
Time: 22:50:10
(UTC+00:00)

Daily predictions for brighter satellites

Satellite Brightness Start Highest point End
(mag) Time Altitude Azimuth Time Altitude Azimuth Time Altitude Azimuth
SJ 16-02 4.0 15:57:01 14° SE 15:57:51 15° SE 16:00:22 10° E
Cosmos 407 Rocket 4.4 16:25:56 33° SSE 16:27:58 48° ESE 16:33:05 10° NE
Cosmos 1674 Rocket 4.4 16:30:20 47° ENE 16:30:20 47° ENE 16:33:52 10° NNE
Cosmos 1603 3.6 16:31:08 88° ENE 16:31:08 88° ENE 16:36:51 10° SSE
Cosmos 1140 Rocket 4.2 16:36:07 42° N 16:36:07 42° N 16:39:33 10° N
SL-8 Rocket 3.8 16:41:20 65° W 16:41:27 66° W 16:47:41 10° S
USA 281 3.5 16:38:57 10° SSE 16:45:34 67° ENE 16:52:08 10° NNW
Cosmos 1809 Rocket 4.3 16:44:07 43° SSW 16:46:08 69° W 16:52:12 10° N
Cosmos 1869 4.3 16:45:21 10° NNE 16:48:38 40° E 16:51:59 10° SSE
Cosmos 2341 Rocket 3.9 16:47:49 50° NW 16:49:06 60° W 16:55:20 10° S
Landsat 7 4.4 16:48:43 10° NNE 16:53:17 55° ESE 16:57:55 10° S
Meteor 2-14 Rocket 4.3 16:51:01 35° SSW 16:53:33 62° W 16:59:32 10° N
Cosmos 2218 Rocket 3.9 16:47:36 10° NNW 16:53:53 64° W 17:00:09 10° S
BREEZE M DEB (TANK) 4.2 16:53:36 10° NNW 16:58:04 25° NNE 17:00:22 10° E
Gbstr 26 Del rocket 4.2 16:56:51 38° SSW 16:58:35 51° SSE 17:04:51 10° E
ATLAS 2AS CENTAUR R/B 2.8 16:52:06 12° NNW 16:58:46 83° ENE 17:06:09 10° SE
Meteor 2-21 4.3 16:53:48 10° SSW 16:59:55 74° W 17:05:58 10° N
Cosmos 1908 Rocket 3.8 16:55:54 10° N 17:00:21 73° E 17:04:51 10° SSE
Cosmos 921 Rocket 3.2 17:01:54 57° NW 17:01:54 57° NW 17:05:46 10° N
Cosmos 304 Rocket 3.6 17:00:53 53° SSW 17:02:00 81° WNW 17:06:45 10° NNE
Cosmos 1025 Rocket 2.8 17:01:58 74° WSW 17:02:13 77° W 17:06:29 10° N
ATLAS 3B R/B 3.6 17:04:17 14° SSW 17:09:16 40° SE 17:15:27 10° ENE
COSMOS 2455 3.8 17:11:21 27° NW 17:11:21 27° NW 17:15:19 10° NNW
Cosmos 2221 Rocket 3.6 17:07:08 13° S 17:11:05 84° E 17:15:29 10° N
Cosmos 1697 Rocket 4.3 17:08:56 10° S 17:14:03 33° SE 17:19:08 10° ENE
Cosmos 1484 Rocket 2.9 17:10:57 10° NNE 17:14:22 62° ESE 17:16:29 22° S
Cosmos 1782 Rocket 4.4 17:10:33 10° NNE 17:14:50 51° E 17:19:08 10° SSE
Cosmos 405 Rocket 3.7 17:17:27 25° N 17:17:27 25° N 17:18:52 10° N
Cosmos 2366 rocket 4.4 17:12:14 10° NW 17:18:06 39° WSW 17:24:01 10° S
Cosmos 1356 Rocket 3.9 17:16:39 10° N 17:20:38 59° E 17:24:42 10° SSE
ISS -3.3 17:25:13 45° SSW 17:25:13 45° SSW 17:28:35 10° SE
SL-4 R/B 3.3 17:26:39 19° NNW 17:26:39 19° NNW 17:28:22 10° N
Cosmos 371 Rocket 3.4 17:24:12 31° SW 17:26:15 53° WNW 17:30:54 10° N
Cosmos 2239 Rocket 4.4 17:20:17 10° N 17:26:29 79° W 17:32:43 10° S
SPOT 1/Viking Rocket 4.1 17:24:41 10° NNE 17:29:47 60° ESE 17:34:59 10° S
Cosmos 2056 Rocket 4.0 17:24:58 10° N 17:30:00 62° ENE 17:35:10 10° SSE
Meteor 2-8 Rocket 4.4 17:28:45 10° NNW 17:34:52 63° W 17:41:04 10° S
SJ 16-02 1.3 17:33:34 21° SSW 17:36:20 60° WNW 17:40:35 10° N
Thor Agena Rocket 4.2 17:31:28 10° NNE 17:36:39 58° ESE 17:41:53 10° S
Cosmos 1656 3.6 17:32:27 16° SSW 17:36:52 62° WNW 17:42:16 10° N
SL-16 R/B 2.6 17:31:34 10° S 17:37:46 59° WSW 17:43:54 10° NNW
Cosmos 2058 4.2 17:34:14 10° S 17:38:03 40° ESE 17:41:48 10° NNE
Cosmos 1821 Rocket 4.4 17:37:15 10° NW 17:42:50 37° WSW 17:48:31 10° S
MOS 1 Rocket 4.3 17:40:13 10° NNW 17:43:59 25° W 17:44:43 24° WSW
Cosmos 1980 Rocket 4.0 17:42:19 10° S 17:47:07 28° SE 17:51:54 10° ENE
CBERS-1 4.1 17:42:31 10° N 17:47:34 59° WNW 17:52:43 10° SSW
DELTA 2 R/B (1) 4.1 17:44:32 14° WNW 17:49:09 54° N 17:54:35 10° E
Cosmos 1727 Rocket 4.3 17:44:11 10° SSW 17:50:16 47° W 17:56:18 10° NNW
Cosmos 1833 Rocket 2.7 17:46:25 10° NNW 17:52:05 86° WSW 17:57:49 10° SSE
Cosmos 1867 4.0 17:49:01 13° WNW 17:53:23 39° SW 17:58:28 10° SSE
SMAP 3.4 17:49:26 10° N 17:53:56 46° W 17:58:30 10° SSW
Cosmos 1190 Rocket 4.0 17:51:54 10° SSW 17:57:11 67° WNW 18:02:25 10° N
ARIANE 5 R/B 2.6 17:52:29 10° NNE 17:57:29 83° ESE 18:02:35 10° SSW
USA 307 2.8 17:58:18 19° SSW 17:58:18 19° SSW 17:59:19 10° SSE
Cosmos 2123 Rocket 3.9 17:53:28 10° SSW 17:59:42 71° W 18:05:52 10° N
Resurs 1-3 3.9 18:00:20 10° NNE 18:04:38 71° ESE 18:09:00 10° S
YAOGAN 1 3.0 18:05:39 10° NNE 18:09:54 66° ESE 18:14:13 10° S
Cosmos 1605 Rocket 4.2 18:04:15 10° N 18:10:30 78° E 18:16:44 10° S
Meteor 1-28 Rocket 3.8 18:09:20 10° S 18:12:11 27° WSW 18:15:01 10° NW
Cosmos 1934 Rocket 4.1 18:06:34 10° NNW 18:12:50 60° W 18:19:14 10° S
Cosmos 1954 Rocket 4.1 18:07:47 10° SSW 18:13:02 58° WNW 18:18:14 10° N
Cosmos 1371 Rocket 4.1 18:12:34 10° NW 18:17:39 54° WSW 18:22:47 10° SSE
Cosmos 1315 Rocket 4.0 18:15:28 10° WNW 18:18:17 19° WSW 18:21:08 10° SSW
Cosmos 1975 Rocket 3.3 18:16:45 10° SSW 18:21:08 53° W 18:25:29 10° N
Cosmos 972 Rocket 3.9 18:17:19 10° NNW 18:22:26 89° W 18:27:25 10° SSE
BREEZE-M DEB (TANK) 3.6 18:21:59 10° W 18:27:48 36° SSW 18:30:19 10° SE
Cosmos 44 Rocket 3.3 18:23:48 10° NW 18:28:24 53° SW 18:32:59 10° SSE
CZ-4C R/B 3.1 18:19:43 10° NW 18:28:41 70° SW 18:36:05 10° SSE
Cosmos 1452 Rocket 4.4 18:24:14 10° N 18:29:22 55° ENE 18:34:34 10° SSE
USA 281 4.1 18:24:08 10° S 18:29:33 28° SW 18:34:59 10° WNW
Resurs 01 Rocket 2.2 18:27:54 10° NNE 18:32:17 62° ESE 18:36:43 10° S
Cosmos 676 Rocket 4.3 18:31:26 10° SSW 18:36:34 49° WNW 18:41:41 10° N
USA 215 3.8 18:30:16 10° ENE 18:36:40 56° SSE 18:43:07 10° SW
USA 229 DEB 3.8 18:31:33 10° SW 18:37:30 44° WNW 18:42:56 10° N
Okean 1 Rocket 4.5 18:33:24 10° NNE 18:37:33 44° E 18:41:43 10° SSE
Cosmos 2251 Rocket 4.5 18:33:09 10° SW 18:37:34 28° W 18:41:57 10° NNW
USA 229 3.8 18:31:36 10° SW 18:37:34 44° WNW 18:43:00 10° N
Spot 4 Rocket 4.5 18:33:12 10° NNE 18:38:17 67° ESE 18:43:26 10° S
